Flag for U.S.A. Weather past 2 weeks in Anaheim, California, U.S.A.

Now
83 °F

Sunny.


Feels Like: 84 °F
Forecast: 67 / 80 °F
Wind: 7 mph from North

Location: Fullerton Municipal Airport

Current Time: Sep 18, 2014 at 5:55:35 PM

Latest Report: Sep 18, 2014 at 4:53 PM


Visibility: 10 mi

Pressure: 29.79 "Hg

Humidity: 50%

Dew point: 62 °F

Location of AnaheimLocation

Historic Weather in Anaheim — Graph

°F

Anaheim temperature yesterday

Maximum temperature yesterday: 97 °F (at 11:53 AM)
Minimum temperature yesterday: 75 °F (at 11:53 PM)
Average temperature yesterday: 86 °F

Past Weeks' High & Low Weather Summary

 TemperatureHumidityPressure
High104 °F (Sep 14, 2:53 PM)85% (Sep 5, 4:53 AM)29.91 "Hg (Sep 5, 4:53 AM)
Low65 °F (Sep 10, 6:53 AM)20% (Sep 9, 12:53 PM)29.66 "Hg (Sep 14, 2:53 PM)
Average80 °F54%29.78 "Hg
* Reported Sep 3 4:53 PM — Sep 18 4:53 PM, Anaheim, Weather by CustomWeather, © 2014

Note: Actual official high and low records may vary slightly from our data, if they occured in-between our weather recording intervals... More about our weather records

Advertising

Anaheim weather history for previous 24 hours

 ConditionsComfort  
Time TempWeatherWind HumidityBarometerVisibility
4:53 PM
Sep 18
83 °FSunny.7 mph50%29.79 "Hg10 mi
3:53 PM84 °FSunny.6 mph53%29.79 "Hg10 mi
2:53 PM83 °FSunny.10 mph53%29.80 "Hg10 mi
1:53 PM82 °FSunny.9 mph55%29.83 "Hg10 mi
12:53 PM81 °FPassing clouds.6 mph54%29.85 "Hg10 mi
11:53 AM80 °FPassing clouds.6 mph56%29.86 "Hg10 mi
10:53 AM80 °FSunny.7 mph51%29.88 "Hg10 mi
9:53 AM77 °FPassing clouds.6 mph56%29.88 "Hg10 mi
8:53 AM73 °FSunny.5 mph64%29.87 "Hg10 mi
7:53 AM70 °FSunny.No wind73%29.85 "Hg10 mi
6:53 AM69 °FClear.No wind76%29.83 "Hg10 mi
5:53 AM69 °FClear.3 mph79%29.81 "Hg10 mi
4:53 AM69 °FClear.No wind76%29.79 "Hg10 mi
3:53 AM70 °FClear.3 mph73%29.78 "Hg10 mi
2:53 AM71 °FClear.3 mph73%29.78 "Hg10 mi
1:53 AM72 °FClear.3 mph71%29.78 "Hg10 mi
12:53 AM73 °FClear.3 mph69%29.78 "Hg10 mi
11:53 PM
Sep 17
75 °FClear.6 mph52%29.78 "Hg10 mi
10:53 PM76 °FClear.5 mph52%29.77 "Hg10 mi
9:53 PM78 °FClear.3 mph50%29.76 "Hg10 mi
8:53 PM79 °FClear.5 mph47%29.75 "Hg10 mi
7:53 PM80 °FSunny.6 mph47%29.72 "Hg10 mi
6:53 PM84 °FSunny.8 mph36%29.70 "Hg10 mi
5:53 PM87 °FSunny.9 mph28%29.69 "Hg10 mi
Weather by CustomWeather, © 2014

See weather overviewHow to use our weather pages